Location: Mountain Grove
(34.0887°N, 86.6172°W)
Time: 00:42:13
(UTC+00:00)

Cosmos 2218 Rocket - Pass Details

Date: 14 July 2020
Orbit: 955 x 1007 km, 82.9° (Epoch: 12 August)

Event Time Altitude Azimuth Distance (km) Brightness Sun altitude
Exits shadow 04:09:49 63° 74° (ENE) 1,096 4.1 -29.2°
Drops below altitude 10° 04:15:40 10° 13° (NNE) 2,740 6.9 -29.7°
Sets 04:18:11 0° 10° (N) 3,683 7.8 -30.0°
